Weather History for Gillette, WY

Change the Weather History Date:

Friday, October 4, 2013

  Actual Average Record
Temperature  
Mean Temperature 30 °F 50 °F  
Max Temperature 32 °F 63 °F 89 °F (1963)
Min Temperature 28 °F 36 °F 24 °F (1954)
Degree Days  
Heating Degree Days 35 16  
Month to date heating degree days 55 60  
Since 1 July heating degree days 196 355  
Moisture  
Dew Point 29 °F    
Average Humidity 96    
Maximum Humidity 100    
Minimum Humidity 92    
Precipitation  
Precipitation 0.55 in 0.05 in 1.11 in (1998)
Month to date precipitation 1.73 0.20  
Year to date precipitation 17.54 11.87  
Sea Level Pressure  
Sea Level Pressure 30.22 in    
Wind  
Wind Speed 22 mph (NNW)    
Max Wind Speed 28 mph    
Max Gust Speed 36 mph    
Visibility 1 miles    
Events Fog , Snow    
T = Trace of Precipitation, MM = Missing Value Source: NWS Daily Summary

Daily Weather History Graph

Daily Weather History Graph

Search for Another Location

Airport:

Trip Planner

Search our weather history database for the weather conditions in past years. The results will help you decide how hot, cold, wet, or windy it might be!

Date:

Astronomy

Oct. 04, 2013 Rise Set
Actual Time 7:03 AM MDT 6:36 PM MDT
Civil Twilight 6:34 AM MDT 7:05 PM MDT
Nautical Twilight 6:01 AM MDT 7:39 PM MDT
Astronomical Twilight 5:27 AM MDT 8:13 PM MDT
Moon 6:42 AM MDT (10/4) 6:19 PM MDT (10/4)
Length of Visible Light 12h 30m
Length of Day
11h 32m
Waning Crescent, 0% of the Moon is Illuminated
Oct 4
Waning Crescent
Oct 4
New
Oct 11
First Quarter
Oct 18
Full
Oct 26
Last Quarter

Hourly Weather History & Observations

Time (MDT) Temp. Windchill Dew Point Humidity Pressure Visibility Wind Dir Wind Speed Gust Speed Precip Events Conditions
12:50 AM 32.0 °F 22.5 °F - N/A% 30.10 in 1.0 mi North 12.7 mph - 0.10 in Snow Light Snow
12:53 AM 32.0 °F 22.1 °F - N/A% 30.14 in 1.0 mi North 13.8 mph - 0.10 in Snow Light Snow
1:48 AM 32.0 °F 21.2 °F - N/A% 30.10 in 0.8 mi North 16.1 mph - 0.05 in Snow Light Snow
1:53 AM 32.0 °F 20.8 °F - N/A% 30.13 in 0.8 mi North 17.3 mph - 0.06 in Snow Light Snow
2:28 AM 32.0 °F 21.2 °F - N/A% 30.11 in 0.8 mi North 16.1 mph - 0.05 in Snow Light Snow
2:42 AM 32.0 °F 20.8 °F - N/A% 30.10 in 0.5 mi North 17.3 mph - 0.06 in Snow Snow
2:48 AM 32.0 °F 20.8 °F - N/A% 30.10 in 0.8 mi North 17.3 mph - 0.07 in Snow Light Snow
2:53 AM 32.0 °F 20.5 °F - N/A% 30.14 in 0.8 mi North 18.4 mph - 0.08 in Snow Light Snow
3:39 AM 32.0 °F 21.2 °F - N/A% 30.14 in 1.0 mi NNW 16.1 mph - 0.05 in Snow Light Snow
3:53 AM 32.0 °F 21.2 °F - N/A% 30.16 in 1.0 mi North 16.1 mph - 0.06 in Snow Light Snow
4:03 AM 32.0 °F 20.5 °F - N/A% 30.11 in 0.8 mi North 18.4 mph - 0.01 in Snow Light Snow
4:13 AM 32.0 °F - - N/A% 30.12 in 1.0 mi North - - 0.01 in Snow Light Snow
4:21 AM 32.0 °F - - N/A% 30.12 in - North - - 0.01 in   Unknown
4:53 AM - - - N/A% 30.13 in - North - - 0.01 in   Unknown
5:48 AM 32.0 °F 20.8 °F 30.2 °F 93% 30.13 in 0.8 mi North 17.3 mph - 0.03 in Snow Light Snow
5:53 AM 32.0 °F 20.8 °F 30.0 °F 92% 30.19 in 0.8 mi North 17.3 mph - 0.05 in Snow Light Snow
6:09 AM 32.0 °F 20.1 °F 30.2 °F 93% 30.14 in 0.8 mi North 19.6 mph - 0.06 in Snow Light Snow
6:50 AM 32.0 °F 20.1 °F - N/A% 30.16 in 0.5 mi North 19.6 mph - 0.12 in Snow Snow
6:53 AM 32.0 °F 20.1 °F - N/A% 30.22 in 0.5 mi NNW 19.6 mph - 0.13 in Snow Snow
7:02 AM 30.2 °F 17.4 °F - N/A% 30.17 in 0.8 mi North 20.7 mph - 0.00 in Snow Light Snow
7:11 AM 30.2 °F 17.4 °F - N/A% 30.17 in 0.5 mi NNW 20.7 mph - 0.01 in Snow Snow
7:53 AM 30.9 °F 17.2 °F - N/A% 30.23 in 0.2 mi North 25.3 mph - 0.07 in Snow Heavy Snow
8:53 AM 30.9 °F 17.8 °F 30.0 °F 96% 30.26 in 0.2 mi NNW 23.0 mph - 0.03 in Fog , Snow Snow
9:10 AM 30.2 °F 16.2 °F 28.4 °F 93% 30.21 in 0.5 mi NNW 25.3 mph - 0.00 in Fog Light Freezing Fog
9:40 AM 30.2 °F 15.9 °F 30.2 °F 100% 30.19 in 0.5 mi NNW 26.5 mph - 0.00 in Fog , Snow Snow
9:53 AM 30.9 °F 17.5 °F 30.0 °F 96% 30.28 in 0.5 mi NNW 24.2 mph 32.2 mph 0.00 in Fog , Snow Snow
10:05 AM 30.2 °F 16.2 °F 30.2 °F 100% 30.19 in 0.8 mi NNW 25.3 mph - 0.00 in Snow Light Snow
10:20 AM 30.2 °F 16.2 °F 30.2 °F 100% 30.20 in 0.5 mi NNW 25.3 mph - 0.01 in Fog , Snow Snow
10:53 AM 30.9 °F 16.9 °F - N/A% 30.28 in 0.2 mi NNW 26.5 mph - 0.01 in Snow Heavy Snow
11:26 AM 30.2 °F 14.9 °F - N/A% 30.20 in 0.5 mi NNW 31.1 mph 35.7 mph 0.00 in Snow Snow
11:35 AM 30.2 °F 15.2 °F - N/A% 30.20 in 0.5 mi NNW 29.9 mph 36.8 mph 0.00 in Snow Snow
11:53 AM 30.9 °F 16.7 °F 28.9 °F 92% 30.29 in 0.2 mi NNW 27.6 mph - 0.00 in Fog Light Freezing Fog
12:14 PM 30.2 °F 16.2 °F 28.4 °F 93% 30.22 in 0.5 mi NNW 25.3 mph - 0.00 in Fog Light Freezing Fog
12:25 PM 30.2 °F - 28.4 °F 93% 30.22 in 0.8 mi North - - 0.00 in Snow Light Snow
12:53 PM 30.9 °F 16.9 °F 28.9 °F 92% 30.30 in 0.5 mi NNW 26.5 mph - 0.00 in Fog , Snow Snow
1:01 PM 30.2 °F 15.9 °F 28.4 °F 93% 30.22 in 0.5 mi NNW 26.5 mph 33.4 mph 0.00 in Fog , Snow Snow
1:12 PM 30.2 °F - 28.4 °F 93% 30.21 in - North - - 0.00 in   Unknown
1:22 PM 30.2 °F 15.7 °F 28.4 °F 93% 30.21 in 0.8 mi NNW 27.6 mph - 0.00 in Snow Light Snow
1:36 PM 30.2 °F 15.4 °F 28.4 °F 93% 30.21 in 0.5 mi NNW 28.8 mph 33.4 mph 0.00 in Fog , Snow Snow
1:42 PM 30.2 °F 15.7 °F 28.4 °F 93% 30.20 in 0.8 mi NNW 27.6 mph 34.5 mph 0.00 in Snow Light Snow
1:47 PM 30.2 °F 15.9 °F 28.4 °F 93% 30.20 in 0.5 mi NNW 26.5 mph 34.5 mph 0.00 in Fog , Snow Snow
1:53 PM 30.9 °F 16.7 °F 28.9 °F 92% 30.27 in 0.5 mi NNW 27.6 mph 36.8 mph 0.00 in Fog , Snow Snow
2:11 PM 30.2 °F 15.4 °F 28.4 °F 93% 30.19 in 0.5 mi NNW 28.8 mph 35.7 mph 0.00 in Fog , Snow Snow
2:53 PM 30.9 °F 17.5 °F - N/A% 30.29 in 0.5 mi NW 24.2 mph 32.2 mph 0.00 in Snow Snow
3:53 PM 30.9 °F 17.2 °F - N/A% 30.30 in 0.2 mi NW 25.3 mph - 0.01 in Snow Heavy Snow
4:41 PM 30.2 °F 15.9 °F - N/A% 30.23 in 0.5 mi NW 26.5 mph - 0.01 in Snow Snow
4:53 PM 30.0 °F 15.7 °F - N/A% 30.23 in 0.5 mi NW 26.5 mph - 0.01 in Snow Snow
5:33 PM 30.2 °F - - N/A% 30.25 in 0.5 mi North - - 0.01 in Snow Snow
5:53 PM 30.0 °F 17.5 °F 28.0 °F 92% 30.34 in 0.5 mi NNW 19.6 mph - 0.01 in Fog , Snow Snow
6:09 PM 30.2 °F 16.2 °F 28.4 °F 93% 30.25 in 0.2 mi NNW 25.3 mph 29.9 mph 0.01 in Fog , Snow Heavy Snow
6:50 PM 28.4 °F 13.3 °F - N/A% 30.25 in 0.8 mi NW 27.6 mph 34.5 mph 0.02 in Snow Light Snow
6:53 PM 28.9 °F 14.0 °F - N/A% 30.32 in 0.8 mi NW 27.6 mph 34.5 mph 0.02 in Snow Light Snow
7:21 PM 28.4 °F 15.1 °F - N/A% 30.25 in 1.0 mi NW 20.7 mph 28.8 mph 0.00 in Snow Light Snow
7:28 PM 28.4 °F 14.1 °F - N/A% 30.25 in 0.8 mi NW 24.2 mph 29.9 mph 0.00 in Snow Light Snow
7:43 PM 28.4 °F 13.5 °F - N/A% 30.25 in 1.0 mi NW 26.5 mph - 0.01 in Snow Light Snow
7:53 PM 28.9 °F 13.7 °F - N/A% 30.35 in 0.8 mi NW 28.8 mph 34.5 mph 0.01 in Snow Light Snow
8:12 PM 30.2 °F 16.5 °F - N/A% 30.25 in 0.8 mi NW 24.2 mph 32.2 mph 0.00 in Snow Light Snow
8:37 PM 30.2 °F 15.7 °F - N/A% 30.25 in 1.0 mi NW 27.6 mph - 0.00 in Snow Light Snow
8:53 PM 30.0 °F 15.2 °F - N/A% 30.35 in 1.2 mi NW 28.8 mph - 0.01 in Snow Light Snow
9:40 PM 30.2 °F 16.8 °F - N/A% 30.26 in 2.0 mi NW 23.0 mph - 0.00 in Snow Light Snow
9:53 PM 30.0 °F 17.2 °F - N/A% 30.35 in 1.8 mi NW 20.7 mph 29.9 mph 0.00 in Snow Light Snow
9:58 PM 30.2 °F 17.1 °F - N/A% 30.27 in 3.0 mi NW 21.9 mph 28.8 mph 0.00 in Snow Light Snow
10:39 PM 30.2 °F 16.8 °F 28.4 °F 93% 30.27 in 6.0 mi NW 23.0 mph - 0.00 in Snow Light Snow
10:53 PM 30.0 °F 16.9 °F 28.0 °F 92% 30.35 in 10.0 mi NW 21.9 mph 29.9 mph 0.00 in   Overcast
11:53 PM 30.0 °F 16.9 °F - N/A% 30.35 in 9.0 mi NW 21.9 mph - 0.00 in   Overcast